ATLAS 5 CENTAUR DEB, 44684

Orbit data source: Space-Track

ATLAS 5 CENTAUR DEB, 44684 is space debris in HEO originally from a launch on Wed, 17 Oct 2018 UTC launched from the Air Force Eastern Test Range (AFETR). Debris objects in space refer to the collection of defunct objects orbiting the Earth. Examples of debris include non-operational satellites, rocket bodies, and fragments generated from explosions, collisions, or faulty payload assembly.

Loading next visibility...
Identifier
44684, 2018-079AW
Orbit
HEO
Country
Flag of USUS
Related business
Flag of USUnited Launch Alliance/Lockheed Martin (US)
Manufacturer
ULA Decatur
Mission
Spacecraft
Bus & Motor
Unknown
Mass
Unknown
Launch date (UTC)
2018-10-17 (7 years ago)
Launch vehicle
Unknown
Launch site
Air Force Eastern Test Range (AFETR)
Object type
Payload
Rocket body
Debris
Shape & HBR
Unknown shape, 1.1 m
Radar Cross Section
RCS unknown

Expand to show TLE details & history
Last TLE update: 2 days ago

TLE from 2 days ago
0 ATLAS 5 CENTAUR DEB
1 44684U 18079AW  25348.03534269 -.00000075  00000-0  00000-0 0  9998
2 44684  13.0883  50.1949 4658580 287.2547  28.1278  1.83129409 43675
Epoch: 2025-12-14T00:50Z
TLE epoch observation values (Epoch: 2025-12-14T00:50:53.608Z)
Latitude
0.00009°
Longitude
-45.54444°
Altitude
13,060.77 km
Speed
5.185 km/s
True Right ascension
03h 20m 31s
True Declination
0° 00' 00"
Sunlit
Object was in daylight at epoch
Visualization orbit readout
Latitude
Unknown
Longitude
Unknown
Altitude
Unknown
Speed
Unknown
Apparent Right ascension
Unknown
Apparent Declination
Unknown
Sunlit
N/A
Visualization observer readout
Local Sidereal Time
06:06:09
Azimuth
Unknown
Elevation
Unknown
Doppler factor
Unknown
Orbital elements
Apogee altitude
34,992.031 km
Perigee altitude
8,696.682 km
Semi-major axis
28,222.493 km
Eccentricity
0.46586
Inclination
13.0883°
RAAN
50.1949°
Arg. of periapsis
287.2547°
True anomaly
72.7544°
Mean anomaly
28.1278°
Eccentric anomaly
47.9471°
Mean motion
0.45777 °/min
Orbital period
786.42 mins
BSTAR
0
Loading maneuver chart data...
Computing Atmospheric mass density...

Documentation

Showing up to 5 results
|